TimeEAT,TemperatureF,Dew PointF,Humidity,Sea Level PressureIn,VisibilityMPH,Wind Direction,Wind SpeedMPH,Gust SpeedMPH,PrecipitationIn,Events,Conditions,WindDirDegrees,DateUTC
12:00 AM,70,65,78,,19,Calm,Calm,,,,Scattered Clouds,,2013-02-26 21:00:00
1:00 AM,69.8,64.4,83,30.01,6.2,Calm,Calm,-,N/A,,Scattered Clouds,0,2013-02-26 22:00:00
3:00 AM,68,65,87,,19,Calm,Calm,,,,Scattered Clouds,,2013-02-27 00:00:00
4:00 AM,68.0,66.2,94,29.98,6.2,Calm,Calm,-,N/A,,Scattered Clouds,0,2013-02-27 01:00:00
6:00 AM,66,63,88,,19,Calm,Calm,,,,Scattered Clouds,,2013-02-27 03:00:00
6:00 AM,66.2,62.6,88,30.01,6.2,Calm,Calm,-,N/A,,Partly Cloudy,0,2013-02-27 03:00:00
8:00 AM,68.0,55.4,64,30.04,6.2,Calm,Calm,-,N/A,,Partly Cloudy,0,2013-02-27 05:00:00
9:00 AM,74,57,45,,19,East,18.4,,,,Scattered Clouds,90,2013-02-27 06:00:00
11:00 AM,84.2,51.8,33,30.06,6.2,ENE,17.3,-,N/A,,Scattered Clouds,60,2013-02-27 08:00:00
12:00 PM,84,53,24,,19,ENE,13.8,,,,Scattered Clouds,60,2013-02-27 09:00:00
12:00 PM,84.2,51.8,33,30.06,6.2,ENE,13.8,-,N/A,,Scattered Clouds,60,2013-02-27 09:00:00
1:00 PM,86.0,51.8,31,30.04,6.2,NNW,18.4,-,N/A,,Mostly Cloudy,330,2013-02-27 10:00:00
2:00 PM,86.0,59.0,40,30.01,6.2,WNW,11.5,-,N/A,,Mostly Cloudy,300,2013-02-27 11:00:00
3:00 PM,87,58,27,,19,NE,12.7,,,,Scattered Clouds,40,2013-02-27 12:00:00
4:00 PM,86.0,59.0,40,29.98,6.2,NE,11.5,-,N/A,,Mostly Cloudy,50,2013-02-27 13:00:00
5:00 PM,84.2,60.8,45,29.95,-9999.0,NE,11.5,-,N/A,,Clear,40,2013-02-27 14:00:00
6:00 PM,82,64,44,,19,West,11.5,,,,Clear,280,2013-02-27 15:00:00
6:00 PM,82.4,64.4,54,29.95,-9999.0,West,11.5,-,N/A,,Clear,280,2013-02-27 15:00:00
7:00 PM,78.8,66.2,65,29.95,-9999.0,Calm,Calm,-,N/A,,Clear,0,2013-02-27 16:00:00
8:00 PM,77.0,66.2,69,29.95,-9999.0,Calm,Calm,-,N/A,,Clear,0,2013-02-27 17:00:00
9:00 PM,76,67,65,,19,Calm,Calm,,,,Clear,,2013-02-27 18:00:00
11:00 PM,75.2,66.2,73,29.98,-9999.0,Calm,Calm,-,N/A,,Clear,0,2013-02-27 20:00:00